Wind_Speed
2 2 3 5 9 11 10 6 8 8 14 14 11 10 4 6 6 3 2 1 3 3 2 4 3 4 5 8 7 10 7 5 8 7 7 5 6 7 9 9 9 11 14 15 11 11 12 13 11
2 3 3 5 9 13 7 8 6 6 10 12 10 10 6 4 4 3 2 1 3 4 2 4 3 4 1 0 2 9 6 5 6 6 9 6 6 7 7 6 9 12 15 16 10 9 10 13 11
4 4 2 5 7 10 7 6 9 5 7 11 13 11 6 4 4 3 2 3 3 3 4 2 3 3 2 2 5 7 4 5 6 8 10 10 5 5 6 8 12 13 13 14 11 8 9 11 10
6 4 1 4 6 4 5 3 6 3 2 7 12 12 6 4 6 4 3 3 2 2 5 3 1 4 4 2 6 5 5 7 8 8 8 6 5 6 8 10 13 13 11 12 11 8 8 10 8
8 9 0 2 4 4 2 3 4 0 4 6 8 7 6 2 6 5 3 2 0 2 5 5 3 1 2 4 6 5 7 8 9 8 8 8 7 8 8 13 14 11 10 11 11 8 8 9 10
7 8 4 4 3 5 6 4 3 4 5 5 4 3 4 3 4 4 5 2 1 3 4 4 3 3 3 6 6 5 7 7 9 10 7 5 4 7 9 12 14 11 9 9 9 9 8 7 11
7 8 5 2 2 4 3 2 0 1 1 2 4 7 5 6 2 4 6 2 2 3 4 3 4 6 6 8 5 4 5 7 9 8 2 4 6 9 7 10 11 13 11 7 9 8 8 9 9
5 6 6 2 3 4 2 1 2 3 3 3 2 5 4 5 2 4 5 1 4 4 4 3 5 6 7 9 5 3 4 7 9 10 11 7 7 7 7 7 9 12 17 17 11 8 7 9 10
6 5 6 9 2 4 4 0 3 4 6 5 5 6 4 4 2 3 5 4 7 6 6 5 6 5 9 8 4 2 3 6 6 8 8 9 9 10 7 7 8 12 17 16 15 9 7 8 9
10 11 12 10 6 4 4 1 4 3 1 3 3 3 1 2 2 4 5 5 4 6 7 5 4 5 9 9 4 2 2 6 5 5 7 6 8 6 6 9 10 16 17 15 14 10 7 9 7
13 15 12 10 7 6 7 4 6 3 2 2 7 4 5 8 5 6 6 5 4 6 8 7 7 7 8 8 4 1 4 4 5 5 6 4 4 3 5 8 10 13 16 9 10 10 5 6 5
14 13 10 9 7 6 7 7 8 4 1 2 5 4 4 4 6 8 8 8 8 9 8 7 7 9 8 7 4 2 3 4 5 5 4 3 2 4 5 6 9 11 12 11 9 8 7 6 5
12 12 10 9 10 9 9 7 6 4 3 2 4 5 5 6 9 11 8 7 7 7 9 8 6 11 10 8 5 3 3 3 5 2 2 3 2 4 7 6 8 11 12 11 10 7 7 7 8
14 12 7 6 8 10 10 7 4 4 2 2 3 5 6 10 11 13 12 10 9 7 7 8 8 10 9 8 6 3 3 3 1 2 3 4 2 3 4 6 8 9 11 7 8 7 7 9 8
16 12 9 7 7 7 10 11 6 5 4 4 3 8 8 10 11 14 12 12 11 9 8 8 9 10 10 10 7 7 5 1 2 2 4 4 2 2 4 7 9 6 10 7 8 5 6 7 8
16 16 16 9 8 10 10 10 10 6 7 5 6 6 6 10 12 15 14 13 11 9 10 11 10 8 9 11 9 9 9 7 5 4 5 4 3 1 4 6 5 6 6 6 8 7 5 3 5
16 14 16 15 11 10 10 10 11 9 9 11 5 6 7 11 13 17 17 14 12 12 10 10 10 10 10 12 11 10 11 11 9 7 7 6 5 3 2 3 6 4 7 7 8 10 6 2 5
15 14 14 13 6 6 6 7 5 9 12 10 8 7 8 9 12 19 18 16 14 14 11 9 11 12 12 12 13 12 12 12 10 9 10 7 7 5 2 1 4 5 5 6 7 9 4 4 4
15 13 13 11 2 6 5 9 5 5 9 9 9 9 10 9 11 16 18 17 16 17 13 9 10 11 12 12 12 12 10 11 12 13 12 10 9 5 3 0 2 2 3 4 5 5 4 5 2
14 13 12 7 6 6 3 4 6 7 8 7 11 14 13 8 11 17 18 18 19 20 16 10 9 10 12 14 13 12 11 13 15 15 14 13 10 8 6 3 1 2 4 3 4 5 2 4 3
14 14 12 10 6 5 2 6 6 5 9 9 10 11 16 14 14 15 17 17 20 21 16 11 10 12 12 14 13 13 14 13 17 18 17 12 11 9 6 3 5 5 4 4 4 3 2 5 5
11 12 7 2 7 10 10 6 4 5 6 10 9 13 13 17 15 14 14 17 19 21 18 15 13 13 13 14 13 12 12 11 16 18 14 13 11 9 7 6 6 5 4 6 6 3 3 3 4
7 6 2 4 8 12 15 12 9 12 12 9 11 12 10 13 11 15 17 20 19 19 18 14 14 13 15 15 14 15 12 12 14 15 15 12 11 9 9 9 8 6 7 7 8 8 6 6 7
5 5 4 5 5 9 16 14 11 8 10 10 7 8 4 9 10 13 13 12 13 15 13 13 17 14 15 16 16 16 17 15 16 16 15 13 12 12 12 11 10 11 10 7 9 10 7 7 6
9 9 7 9 7 7 8 8 5 6 13 8 4 7 2 10 8 9 10 12 14 12 15 18 19 15 14 17 18 17 17 17 16 14 13 13 13 14 12 10 10 12 14 14 11 11 8 7 4
10 12 11 9 6 6 5 3 3 8 15 14 10 5 2 7 9 10 6 9 9 12 11 17 16 14 14 17 20 19 17 17 17 16 15 14 15 15 13 12 11 12 11 9 10 11 9 8 7
8 9 10 13 11 10 8 4 2 4 11 8 7 8 6 5 11 12 8 10 12 16 13 14 12 11 11 14 18 19 18 18 18 17 16 15 16 17 15 14 13 10 10 10 10 13 12 10 9
9 3 7 9 10 13 12 9 4 4 6 10 6 4 7 6 7 11 13 15 16 12 11 15 12 10 12 13 17 17 17 17 16 16 18 17 17 17 17 15 16 15 14 12 12 14 19 14 14
14 10 11 12 14 15 13 9 10 5 5 11 12 8 10 12 10 10 13 14 15 13 12 14 14 13 12 12 14 16 16 16 16 17 16 15 15 15 14 12 14 16 17 15 15 14 14 16 21
20 17 19 20 19 17 19 12 12 9 8 9 12 14 13 15 16 15 15 13 14 14 12 15 13 14 11 12 15 14 12 13 14 15 14 14 12 11 12 12 13 15 16 18 18 17 15 17 17
Wind_Direction
93 58 42 50 17 26 6 69 100 80 35 19 46 23 15 70 85 65 85 93 256 229 215 231 306 359 355 95 116 109 103 71 55 16 53 45 43 47 40 19 359 7 27 27 34 28 11 12 33
189 275 306 340 7 13 42 67 80 84 3 24 52 36 31 71 90 78 54 318 264 209 132 214 218 3 94 140 102 111 89 50 51 34 354 26 39 41 37 6 358 4 18 25 27 29 9 15 24
286 287 324 7 352 17 71 123 77 78 342 354 11 13 41 58 60 47 360 259 247 165 170 205 190 97 131 218 84 92 69 47 40 28 11 37 53 46 27 14 6 7 13 19 29 25 16 20 26
259 280 297 348 8 41 113 57 6 11 77 337 10 6 10 22 43 14 309 251 244 201 204 172 65 86 104 154 114 96 44 59 52 35 13 20 27 49 30 23 21 23 21 25 28 32 22 26 35
247 254 240 319 334 309 260 327 26 169 2 338 327 11 339 334 49 343 297 257 14 48 184 171 115 83 34 148 124 85 65 49 33 19 5 20 23 39 38 38 27 21 19 23 23 41 35 38 43
263 265 262 290 275 289 298 301 250 336 357 353 183 4 337 16 41 329 285 277 125 135 169 194 126 123 49 183 148 67 60 34 20 6 348 358 46 41 40 31 11 12 5 12 25 36 38 51 55
263 282 288 339 307 230 312 329 251 66 311 332 212 272 327 22 354 293 284 302 143 207 180 192 157 139 99 147 134 64 39 23 9 357 313 76 63 43 39 22 35 27 21 45 49 26 39 42 61
295 295 304 315 158 193 238 322 315 317 223 10 284 284 310 324 315 282 281 230 152 170 157 161 156 158 125 139 144 63 19 16 26 14 133 90 75 58 67 46 36 16 49 56 52 28 30 37 62
310 302 297 263 276 200 205 356 285 312 219 319 299 279 280 288 215 240 253 218 168 189 169 165 158 171 143 136 136 88 5 19 44 69 83 74 85 88 59 31 27 8 60 30 44 45 61 47 55
331 315 304 286 254 230 218 258 278 300 211 291 227 158 212 314 253 205 230 229 212 189 176 162 144 142 160 140 132 97 12 14 62 111 98 98 113 101 42 21 15 27 30 33 45 42 79 51 55
335 328 306 291 278 270 258 266 285 277 7 138 188 258 288 252 237 200 193 196 194 190 159 152 147 148 156 136 140 74 39 47 117 124 109 126 115 67 4 24 28 27 23 59 48 55 72 65 70
346 337 318 291 273 260 254 245 247 250 292 153 205 263 293 246 208 206 194 202 188 182 170 169 164 158 152 147 147 94 74 74 133 135 133 149 93 44 27 23 31 26 39 49 65 59 66 75 83
348 330 333 326 288 273 265 245 240 240 229 220 212 235 262 240 218 207 198 201 206 189 179 169 165 178 176 167 178 163 117 106 126 191 189 162 122 67 47 38 14 34 34 45 52 56 62 78 65
341 325 329 343 327 303 283 269 226 229 279 312 295 273 238 242 221 208 204 208 203 202 205 186 182 200 197 195 200 195 202 160 118 167 192 184 166 72 48 42 24 20 38 54 60 65 54 64 62
330 318 324 326 295 284 293 288 243 227 254 253 289 306 264 249 224 221 215 218 218 210 211 205 202 205 224 224 208 197 187 213 234 229 169 177 184 103 54 27 21 29 23 34 58 69 73 56 73
330 327 332 333 303 282 292 305 283 243 230 224 235 266 253 275 236 226 219 227 239 227 216 220 212 222 225 233 218 212 225 245 243 223 202 174 189 148 53 32 17 30 16 3 44 51 87 104 94
326 323 331 319 302 277 301 316 310 285 250 242 244 247 253 237 240 228 228 228 239 240 232 228 226 226 230 233 226 215 224 234 232 232 207 187 182 182 115 45 34 18 17 8 18 26 71 122 108
317 318 314 294 315 353 5 4 310 311 282 281 246 255 254 250 237 222 222 224 229 236 232 226 232 229 225 227 228 219 226 228 221 219 210 189 194 192 159 51 16 3 6 349 356 2 360 355 49
307 302 286 303 322 325 337 343 318 283 281 260 244 231 225 247 230 231 221 227 221 222 222 225 224 223 219 222 230 230 240 229 220 214 207 200 198 194 187 130 360 343 318 6 340 353 11 1 12
298 290 295 300 264 336 21 341 285 275 271 246 237 216 229 227 222 217 221 220 227 226 217 210 212 214 216 216 223 236 243 227 220 216 204 206 196 201 202 197 214 299 312 344 331 320 346 356 343
303 297 295 315 315 26 47 310 293 300 283 291 310 301 245 221 224 219 219 221 227 230 222 220 222 211 218 220 220 234 239 231 213 210 209 205 199 202 208 228 243 244 274 303 330 24 12 309 312
290 295 330 346 82 32 29 11 11 10 345 307 350 344 279 253 225 225 233 225 229 228 222 216 219 216 216 219 216 226 236 221 203 199 206 206 207 215 220 230 240 249 257 289 316 303 348 319 293
344 315 215 161 41 40 53 72 31 1 358 325 327 331 291 232 233 218 230 232 229 230 229 219 214 210 217 214 212 207 210 190 193 195 204 218 223 227 235 243 252 259 279 283 302 316 320 335 313
290 332 252 178 107 65 79 62 39 34 359 334 332 335 303 246 274 246 234 248 239 233 217 242 231 215 213 213 207 209 205 206 204 202 209 219 234 244 244 256 264 270 268 271 303 299 310 299 313
295 307 201 187 120 108 98 58 14 26 23 346 343 358 274 264 260 261 259 254 259 250 226 234 234 227 225 215 206 207 204 211 216 217 223 233 235 237 253 267 282 285 267 269 269 279 282 275 298
303 293 241 202 222 197 186 141 25 35 31 23 353 347 316 249 241 232 255 261 259 225 216 228 222 220 226 223 213 205 210 212 221 227 235 240 242 242 247 252 271 280 259 250 251 267 275 268 266
287 322 231 212 244 250 228 176 279 352 1 25 5 340 309 289 255 255 245 250 253 263 225 240 230 220 224 217 210 208 214 220 224 230 239 244 247 250 248 253 265 262 239 251 255 264 278 274 268
268 249 266 256 264 258 259 232 246 278 344 346 339 306 314 285 241 258 249 250 246 247 308 227 241 222 219 210 211 209 214 225 232 237 244 246 248 251 254 256 260 256 256 263 258 263 264 271 262
258 223 244 252 260 272 268 252 257 279 354 11 356 335 300 278 267 269 269 260 252 247 257 263 228 228 223 213 215 218 221 222 228 235 239 241 241 247 252 253 251 249 253 258 265 276 259 263 267
257 253 256 270 268 267 276 279 288 298 322 343 332 347 338 333 295 275 277 275 260 250 257 266 240 234 222 218 222 220 219 214 210 219 223 232 239 242 247 246 250 250 249 263 264 267 258 261 288
Height
5902 5902 5903 5904 5905 5902 5901 5901 5901 5903 5902 5900 5898 5898 5898 5896 5896 5899 5897 5897 5899 5899 5900 5900 5899 5898 5898 5899 5900 5901 5902 5904 5904 5904 5905 5905 5906 5905 5905 5904 5905 5904 5902 5902 5901 5900 5897 5896 5896
5903 5903 5904 5903 5902 5900 5901 5901 5901 5902 5901 5902 5900 5899 5900 5898 5896 5897 5897 5897 5898 5898 5899 5900 5899 5898 5898 5900 5900 5903 5903 5904 5905 5906 5904 5905 5906 5905 5906 5907 5905 5903 5903 5903 5902 5900 5897 5896 5894
5904 5905 5905 5904 5903 5902 5902 5902 5901 5902 5901 5901 5900 5900 5899 5898 5897 5896 5896 5897 5897 5897 5898 5899 5899 5899 5900 5900 5900 5903 5904 5904 5905 5904 5904 5905 5906 5906 5907 5906 5904 5904 5904 5903 5901 5899 5898 5897 5895
5903 5904 5906 5904 5904 5904 5904 5905 5903 5901 5902 5901 5900 5900 5900 5899 5897 5897 5897 5897 5897 5897 5897 5899 5899 5899 5902 5902 5903 5904 5904 5904 5904 5904 5905 5906 5907 5906 5907 5905 5904 5904 5904 5904 5902 5899 5898 5898 5896
5904 5903 5904 5903 5904 5904 5904 5903 5904 5903 5902 5903 5902 5900 5901 5900 5896 5898 5897 5897 5896 5897 5897 5899 5900 5900 5901 5904 5904 5905 5905 5904 5904 5903 5904 5905 5906 5906 5906 5905 5905 5905 5904 5904 5902 5900 5898 5898 5898
5904 5903 5904 5904 5903 5903 5903 5903 5904 5903 5902 5901 5901 5900 5902 5899 5896 5897 5897 5896 5896 5898 5898 5900 5901 5901 5903 5904 5906 5906 5905 5904 5904 5903 5904 5905 5906 5906 5905 5906 5906 5905 5905 5904 5901 5900 5899 5899 5899
5903 5903 5903 5904 5903 5904 5904 5903 5903 5901 5900 5899 5900 5900 5900 5897 5897 5897 5897 5896 5896 5897 5898 5899 5901 5902 5904 5904 5905 5906 5905 5905 5905 5904 5905 5906 5906 5906 5907 5908 5907 5905 5903 5903 5902 5899 5900 5900 5900
5902 5903 5903 5903 5903 5903 5903 5903 5903 5902 5901 5900 5900 5899 5898 5896 5897 5898 5897 5897 5897 5898 5899 5899 5900 5902 5903 5905 5907 5907 5906 5906 5906 5904 5904 5906 5907 5908 5908 5908 5906 5904 5901 5903 5903 5900 5900 5901 5901
5902 5903 5902 5903 5903 5903 5902 5902 5901 5901 5900 5899 5898 5896 5896 5896 5896 5896 5896 5897 5897 5898 5899 5900 5901 5902 5903 5905 5907 5908 5908 5907 5906 5906 5907 5908 5909 5909 5909 5908 5907 5899 5903 5903 5903 5902 5902 5903 5903
5902 5902 5902 5902 5901 5902 5901 5901 5901 5900 5900 5898 5897 5895 5895 5896 5895 5896 5895 5897 5897 5898 5900 5901 5901 5901 5903 5905 5908 5908 5909 5907 5906 5907 5908 5910 5910 5911 5910 5909 5905 5904 5905 5905 5905 5905 5905 5905 5905
5900 5901 5899 5899 5898 5898 5898 5899 5900 5899 5899 5898 5896 5895 5895 5895 5895 5896 5895 5897 5898 5899 5899 5900 5902 5903 5904 5906 5908 5908 5908 5908 5908 5909 5911 5911 5911 5912 5911 5909 5909 5908 5908 5907 5906 5907 5906 5907 5908
5900 5900 5899 5897 5896 5896 5896 5897 5899 5898 5897 5897 5897 5896 5895 5894 5894 5895 5895 5895 5896 5897 5898 5900 5902 5903 5904 5906 5907 5907 5908 5908 5909 5910 5912 5912 5912 5913 5912 5911 5909 5910 5910 5909 5909 5908 5908 5908 5909
5899 5898 5897 5896 5895 5894 5895 5895 5895 5896 5896 5896 5895 5895 5894 5893 5892 5894 5894 5896 5896 5895 5896 5899 5900 5902 5904 5905 5906 5908 5909 5908 5909 5911 5912 5911 5912 5912 5912 5912 5910 5911 5911 5911 5911 5910 5910 5909 5909
5899 5897 5896 5895 5895 5893 5892 5893 5893 5894 5895 5896 5897 5896 5894 5892 5892 5893 5893 5895 5895 5896 5896 5897 5900 5902 5903 5904 5906 5907 5908 5908 5909 5910 5912 5912 5912 5912 5913 5912 5912 5910 5911 5912 5912 5911 5911 5910 5910
5898 5897 5895 5894 5893 5892 5890 5890 5891 5892 5894 5894 5894 5895 5895 5892 5892 5894 5894 5894 5894 5895 5896 5897 5898 5900 5902 5904 5905 5908 5908 5908 5908 5908 5911 5912 5912 5912 5913 5912 5912 5912 5911 5913 5914 5913 5910 5910 5911
5896 5894 5893 5895 5893 5891 5889 5889 5890 5891 5892 5893 5892 5891 5892 5894 5892 5891 5892 5894 5894 5894 5895 5896 5897 5898 5900 5903 5904 5907 5907 5908 5909 5908 5910 5912 5913 5912 5911 5912 5912 5912 5912 5913 5914 5914 5911 5911 5911
5895 5894 5893 5892 5891 5890 5889 5887 5887 5888 5888 5889 5889 5889 5888 5890 5892 5891 5891 5892 5892 5893 5893 5894 5895 5896 5898 5900 5902 5905 5906 5907 5907 5908 5909 5912 5913 5913 5912 5912 5913 5913 5912 5912 5912 5913 5913 5913 5913
5894 5893 5892 5891 5892 5890 5888 5886 5884 5885 5885 5885 5886 5886 5885 5886 5887 5890 5889 5889 5890 5892 5893 5893 5894 5894 5896 5899 5901 5903 5905 5906 5906 5907 5908 5911 5912 5912 5912 5912 5912 5913 5913 5912 5912 5912 5912 5912 5912
5892 5892 5891 5891 5891 5889 5887 5884 5883 5882 5881 5881 5882 5882 5881 5882 5884 5887 5887 5888 5889 5890 5891 5892 5893 5895 5896 5897 5899 5900 5903 5904 5904 5905 5907 5910 5911 5911 5911 5912 5912 5914 5914 5913 5912 5912 5911 5912 5912
5891 5890 5890 5890 5889 5888 5884 5882 5881 5881 5879 5877 5878 5878 5877 5878 5880 5883 5885 5886 5888 5889 5889 5889 5891 5893 5894 5895 5897 5898 5900 5902 5903 5903 5905 5908 5910 5911 5912 5912 5912 5914 5913 5913 5912 5912 5911 5911 5912
5890 5889 5889 5888 5886 5885 5884 5882 5881 5880 5878 5877 5875 5875 5875 5875 5877 5879 5883 5884 5884 5886 5885 5886 5889 5890 5892 5893 5894 5896 5898 5900 5900 5902 5904 5907 5908 5910 5910 5911 5912 5913 5913 5913 5911 5911 5912 5911 5911
5890 5888 5888 5886 5886 5884 5883 5882 5882 5879 5878 5876 5876 5874 5873 5874 5875 5877 5879 5881 5881 5882 5882 5883 5886 5887 5888 5890 5892 5894 5896 5897 5898 5900 5903 5905 5907 5908 5909 5911 5912 5912 5913 5913 5912 5911 5911 5911 5910
5889 5888 5887 5887 5885 5884 5883 5882 5882 5879 5877 5875 5875 5874 5872 5872 5873 5874 5877 5877 5878 5880 5881 5882 5883 5884 5886 5887 5890 5892 5895 5897 5899 5900 5901 5903 5905 5907 5908 5910 5910 5911 5912 5912 5911 5910 5909 5909 5909
5888 5887 5886 5886 5885 5885 5883 5882 5881 5879 5876 5874 5874 5873 5871 5872 5872 5873 5874 5877 5878 5880 5881 5880 5883 5882 5883 5885 5888 5890 5893 5896 5898 5899 5900 5902 5904 5905 5907 5907 5908 5909 5910 5910 5910 5910 5910 5910 5909
5885 5885 5884 5885 5885 5885 5883 5882 5880 5879 5877 5874 5873 5872 5871 5871 5872 5873 5876 5877 5878 5877 5878 5879 5881 5880 5880 5883 5885 5888 5890 5894 5897 5899 5900 5901 5902 5903 5904 5905 5906 5907 5908 5908 5909 5910 5910 5910 5909
5884 5883 5883 5884 5884 5884 5883 5882 5881 5880 5878 5876 5874 5873 5871 5871 5870 5872 5876 5875 5873 5866 5873 5876 5876 5875 5877 5880 5884 5886 5888 5891 5894 5897 5898 5899 5900 5902 5902 5903 5904 5905 5905 5907 5908 5908 5909 5910 5909
5882 5881 5881 5881 5881 5882 5883 5883 5881 5879 5878 5876 5874 5872 5871 5870 5870 5870 5873 5871 5871 5870 5869 5877 5875 5874 5875 5878 5882 5883 5885 5888 5890 5893 5895 5896 5897 5899 5899 5900 5902 5903 5904 5905 5906 5907 5906 5907 5908
5881 5881 5881 5880 5879 5879 5880 5882 5881 5881 5879 5877 5876 5874 5871 5870 5869 5867 5868 5869 5869 5872 5871 5875 5875 5873 5875 5875 5879 5881 5882 5885 5888 5890 5892 5893 5895 5896 5897 5898 5900 5901 5902 5903 5903 5905 5904 5904 5905
5881 5880 5879 5878 5878 5877 5878 5880 5880 5881 5880 5878 5876 5875 5873 5871 5870 5866 5865 5867 5867 5871 5872 5873 5874 5873 5874 5873 5877 5878 5879 5882 5885 5886 5889 5890 5892 5893 5894 5895 5896 5898 5900 5901 5901 5901 5901 5901 5901
5877 5877 5877 5876 5877 5875 5875 5878 5878 5878 5879 5878 5877 5875 5874 5873 5870 5868 5866 5867 5865 5869 5873 5874 5874 5874 5872 5873 5875 5876 5877 5879 5881 5883 5885 5887 5889 5890 5892 5892 5893 5894 5895 5897 5898 5898 5898 5898 5898